This is the latest recevied weather packets stored in our database for station/object OK1UOJ. If no packets are shown the sender has not sent any weather packets the latest 10 day(s).
| Time | Temp. | Humidity | Pressure | Rain* | Wind** | Luminosity | Snow |
|---|---|---|---|---|---|---|---|
| 1777538242 | 11.11° C | 45% | 1033.5 hPa | - | - | - | - |
| 1777538237 | 11.11° C | 45% | 1033.5 hPa | - | - | - | - |
| 1777537404 | 10° C | 41% | 1033.5 hPa | - | - | - | - |
| 1777537132 | 10° C | 44% | 1033.6 hPa | - | - | - | - |
| 1777537131 | 10° C | 44% | 1033.6 hPa | - | - | - | - |
| 1777537126 | 10° C | 44% | 1033.6 hPa | - | - | - | - |
| 1777536848 | 10.56° C | 43% | 1033.6 hPa | - | - | - | - |
| 1777536294 | 9.44° C | 54% | 1033.7 hPa | - | - | - | - |
| 1777536016 | 8.89° C | 53% | 1033.6 hPa | - | - | - | - |
| 1777535738 | 8.33° C | 53% | 1033.7 hPa | - | - | - | - |
| 1777535460 | 8.89° C | 50% | 1033.7 hPa | - | - | - | - |
| 1777535183 | 9.44° C | 51% | 1033.7 hPa | - | - | - | - |
| 1777534910 | 9.44° C | 52% | 1033.7 hPa | - | - | - | - |
| 1777534905 | 9.44° C | 52% | 1033.7 hPa | - | - | - | - |
| 1777534632 | 8.33° C | 62% | 1033.7 hPa | - | - | - | - |
| 1777534627 | 8.33° C | 62% | 1033.7 hPa | - | - | - | - |
| 1777534077 | 7.22° C | 64% | 1033.8 hPa | - | - | - | - |
| 1777534072 | 7.22° C | 64% | 1033.8 hPa | - | - | - | - |
| 1777533245 | 7.22° C | 67% | 1033.9 hPa | - | - | - | - |
| 1777533240 | 7.22° C | 67% | 1033.9 hPa | - | - | - | - |
| 1777532967 | 7.22° C | 60% | 1033.9 hPa | - | - | - | - |
| 1777532963 | 7.22° C | 60% | 1033.9 hPa | - | - | - | - |
| 1777532413 | 7.22° C | 69% | 1033.9 hPa | - | - | - | - |
| 1777532412 | 7.22° C | 69% | 1033.9 hPa | - | - | - | - |
| 1777532408 | 7.22° C | 69% | 1033.9 hPa | - | - | - | - |
* Rain since midnight (hover to see other rain measurements)
** Current wind speed in m/s (hover to see current wind gust speed)